Location: Batang Balui
(2.7000°N, 113.7833°E)
Time: 00:07:42
(UTC+00:00)

Gbstr 26 Del rocket - Pass Details

Date: 03 December 2021
Orbit: 493 x 1262 km, 51.8° (Epoch: 27 January)

Event Time Altitude Azimuth Distance (km) Brightness Sun altitude
Rises 11:05:39 0° 204° (SSW) 3,998 8.0 -12.8°
Reaches altitude 10° 11:08:45 10° 198° (SSW) 2,936 7.1 -13.5°
Maximum altitude 11:15:24 45° 127° (SE) 1,263 4.4 -15.1°
Enters shadow 11:18:40 24° 68° (ENE) 1,732 4.7 -15.8°
